| time (UTC) | temp F | wind direction | speed MPH | gust MPH | rain 1hr in | rain 24hr in | rain mn in | humidity % | barometer mb |
| 20260904045612 | 81 | 96 | 1.0 | 3.0 | 0.00 | 0.09 | 0.09 | 93 | 1009.0 |
| 20260904045108 | 81 | 98 | 1.0 | 3.0 | 0.00 | 0.09 | 0.09 | 93 | 1009.0 |
| 20260904044840 | 81 | 97 | 0.0 | 2.0 | 0.00 | 0.09 | 0.09 | 93 | 1009.0 |
| 20260904044109 | 81 | 99 | 0.0 | 2.0 | 0.00 | 0.09 | 0.09 | 93 | 1009.0 |
| 20260904043608 | 81 | 134 | 0.0 | 2.0 | 0.00 | 0.09 | 0.09 | 93 | 1009.0 |
| 20260904043337 | 81 | 70 | 1.0 | 2.0 | 0.00 | 0.09 | 0.09 | 93 | 1009.0 |
| 20260904042606 | 81 | 115 | 1.0 | 2.0 | 0.00 | 0.09 | 0.09 | 93 | 1009.0 |
| 20260904042100 | 81 | 92 | 1.0 | 2.0 | 0.00 | 0.09 | 0.09 | 93 | 1009.0 |
| 20260904041831 | 81 | 87 | 0.0 | 2.0 | 0.00 | 0.09 | 0.09 | 93 | 1008.9 |
| 20260904041056 | 81 | 88 | 0.0 | 1.0 | 0.00 | 0.09 | 0.09 | 93 | 1008.9 |
| 20260904040554 | 81 | 86 | 0.0 | 1.0 | 0.00 | 0.09 | 0.09 | 93 | 1009.0 |
| 20260904040326 | 81 | 86 | 0.0 | 1.0 | 0.00 | 0.09 | 0.09 | 92 | 1009.0 |
| 20260904035820 | 81 | 86 | 0.0 | 2.0 | 0.00 | 0.09 | 0.09 | 92 | 1009.0 |
| 20260904035046 | 81 | 86 | 0.0 | 2.0 | 0.00 | 0.09 | 0.09 | 92 | 1009.0 |
| 20260904034821 | 81 | 107 | 1.0 | 3.0 | 0.00 | 0.09 | 0.09 | 92 | 1009.0 |
| 20260904034544 | 81 | 141 | 0.0 | 2.0 | 0.00 | 0.09 | 0.09 | 92 | 1009.0 |
| 20260904034042 | 81 | 102 | 0.0 | 3.0 | 0.00 | 0.09 | 0.09 | 92 | 1009.0 |
| 20260904033310 | 81 | 117 | 1.0 | 4.0 | 0.00 | 0.09 | 0.09 | 92 | 1009.0 |
| 20260904032538 | 81 | 114 | 1.0 | 4.0 | 0.00 | 0.09 | 0.09 | 92 | 1009.0 |
| 20260904032307 | 81 | 117 | 1.0 | 3.0 | 0.00 | 0.09 | 0.09 | 92 | 1009.0 |
| 20260904032155 | 81 | 91 | 1.0 | 3.0 | 0.00 | 0.09 | 0.09 | 93 | 1008.9 |
| 20260904031035 | 81 | 118 | 1.0 | 4.0 | 0.00 | 0.09 | 0.09 | 93 | 1009.0 |
| 20260904030542 | 81 | 89 | 1.0 | 4.0 | 0.00 | 0.09 | 0.09 | 93 | 1008.9 |
| 20260904030536 | 81 | 82 | 1.0 | 4.0 | 0.00 | 0.09 | 0.09 | 93 | 1009.0 |
| 20260904025532 | 81 | 127 | 1.0 | 4.0 | 0.00 | 0.09 | 0.09 | 93 | 1008.9 |
| 20260904025032 | 81 | 130 | 1.0 | 3.0 | 0.00 | 0.09 | 0.09 | 93 | 1009.0 |
| 20260904024532 | 81 | 136 | 1.0 | 4.0 | 0.00 | 0.09 | 0.09 | 93 | 1009.0 |
| 20260904024302 | 81 | 91 | 1.0 | 4.0 | 0.00 | 0.09 | 0.09 | 93 | 1009.0 |
| 20260904023800 | 81 | 132 | 1.0 | 5.0 | 0.00 | 0.09 | 0.09 | 93 | 1008.9 |
| 20260904023027 | 81 | 106 | 1.0 | 5.0 | 0.00 | 0.09 | 0.09 | 93 | 1008.8 |
| 20260904022525 | 81 | 103 | 1.0 | 4.0 | 0.00 | 0.09 | 0.09 | 93 | 1008.8 |
| 20260904022026 | 81 | 100 | 1.0 | 4.0 | 0.00 | 0.09 | 0.09 | 93 | 1008.7 |
| 20260904021527 | 81 | 122 | 1.0 | 4.0 | 0.00 | 0.09 | 0.09 | 93 | 1008.7 |
| 20260904021023 | 81 | 105 | 1.0 | 3.0 | 0.00 | 0.09 | 0.09 | 93 | 1008.6 |
| 20260904020524 | 81 | 101 | 1.0 | 3.0 | 0.00 | 0.09 | 0.09 | 93 | 1008.5 |
| 20260904020018 | 81 | 85 | 1.0 | 3.0 | 0.00 | 0.09 | 0.09 | 93 | 1008.5 |
| 20260904015516 | 81 | 117 | 0.0 | 3.0 | 0.00 | 0.09 | 0.09 | 93 | 1008.5 |
| 20260904015015 | 81 | 99 | 1.0 | 2.0 | 0.00 | 0.09 | 0.09 | 93 | 1008.4 |
| 20260904014511 | 81 | 99 | 1.0 | 2.0 | 0.00 | 0.09 | 0.09 | 92 | 1008.4 |
| 20260904014243 | 81 | 94 | 1.0 | 2.0 | 0.00 | 0.09 | 0.09 | 92 | 1008.4 |
| 20260904013505 | 81 | 97 | 1.0 | 2.0 | 0.00 | 0.09 | 0.09 | 92 | 1008.4 |
| 20260904013005 | 81 | 99 | 1.0 | 4.0 | 0.00 | 0.09 | 0.09 | 92 | 1008.3 |
| 20260904012502 | 81 | 124 | 1.0 | 4.0 | 0.00 | 0.09 | 0.09 | 92 | 1008.3 |
| 20260904012001 | 81 | 99 | 1.0 | 2.0 | 0.00 | 0.09 | 0.09 | 92 | 1008.2 |
| 20260904011459 | 81 | 98 | 0.0 | 1.0 | 0.00 | 0.09 | 0.09 | 92 | 1008.2 |
| 20260904010955 | 81 | 89 | 1.0 | 2.0 | 0.00 | 0.09 | 0.09 | 91 | 1008.2 |
| 20260904010455 | 81 | 92 | 0.0 | 2.0 | 0.00 | 0.09 | 0.09 | 91 | 1008.3 |
| 20260904005956 | 81 | 106 | 0.0 | 1.0 | 0.00 | 0.09 | 0.09 | 91 | 1008.2 |
| 20260904005508 | 81 | 106 | 1.0 | 2.0 | 0.00 | 0.09 | 0.09 | 91 | 1008.0 |
| 20260904005456 | 81 | 106 | 0.0 | 2.0 | 0.00 | 0.09 | 0.09 | 91 | 1008.2 |
| 20260904004454 | 82 | 90 | 0.0 | 2.0 | 0.00 | 0.09 | 0.09 | 91 | 1008.1 |
| 20260904003955 | 82 | 107 | 0.0 | 2.0 | 0.00 | 0.09 | 0.09 | 91 | 1008.2 |
| 20260904003449 | 82 | 151 | 1.0 | 2.0 | 0.00 | 0.09 | 0.09 | 91 | 1008.1 |
| 20260904003218 | 82 | 94 | 1.0 | 3.0 | 0.00 | 0.09 | 0.09 | 91 | 1008.1 |
| 20260904002448 | 82 | 104 | 1.0 | 3.0 | 0.00 | 0.09 | 0.09 | 90 | 1008.1 |
| 20260904001948 | 82 | 94 | 1.0 | 4.0 | 0.00 | 0.09 | 0.09 | 90 | 1008.1 |
| 20260904001448 | 82 | 104 | 1.0 | 4.0 | 0.00 | 0.09 | 0.09 | 90 | 1008.1 |
| 20260904000946 | 82 | 62 | 2.0 | 5.0 | 0.00 | 0.09 | 0.09 | 90 | 1008.1 |
| 20260904000444 | 82 | 96 | 2.0 | 5.0 | 0.00 | 0.09 | 0.09 | 90 | 1008.2 |
| 20260903235942 | 82 | 89 | 2.0 | 4.0 | 0.00 | 0.09 | 0.09 | 90 | 1008.2 |
| 20260903235439 | 82 | 49 | 2.0 | 6.0 | 0.00 | 0.09 | 0.09 | 90 | 1008.1 |
| 20260903234943 | 82 | 98 | 2.0 | 6.0 | 0.00 | 0.09 | 0.09 | 90 | 1008.1 |
| 20260903234438 | 82 | 89 | 1.0 | 4.0 | 0.00 | 0.09 | 0.09 | 90 | 1008.1 |
| 20260903233935 | 82 | 82 | 1.0 | 4.0 | 0.00 | 0.09 | 0.09 | 90 | 1008.1 |
| 20260903233435 | 82 | 73 | 1.0 | 3.0 | 0.00 | 0.09 | 0.09 | 91 | 1008.2 |
| 20260903232936 | 82 | 77 | 1.0 | 3.0 | 0.00 | 0.09 | 0.09 | 91 | 1008.2 |
| 20260903232435 | 82 | 129 | 1.0 | 5.0 | 0.00 | 0.09 | 0.09 | 91 | 1008.2 |
| 20260903231939 | 81 | 87 | 1.0 | 3.0 | 0.00 | 0.09 | 0.09 | 92 | 1008.2 |
| 20260903231932 | 81 | 94 | 2.0 | 5.0 | 0.00 | 0.09 | 0.09 | 91 | 1008.2 |
| 20260903231156 | 81 | 99 | 1.0 | 3.0 | 0.00 | 0.09 | 0.09 | 92 | 1008.2 |
| 20260903230425 | 81 | 110 | 1.0 | 3.0 | 0.00 | 0.09 | 0.09 | 92 | 1008.2 |
| 20260903225925 | 81 | 84 | 0.0 | 3.0 | 0.00 | 0.09 | 0.09 | 92 | 1008.3 |
| 20260903225426 | 81 | 89 | 0.0 | 1.0 | 0.00 | 0.09 | 0.09 | 92 | 1008.3 |
| 20260903224926 | 81 | 89 | 1.0 | 3.0 | 0.00 | 0.09 | 0.09 | 92 | 1008.4 |
| 20260903224425 | 80 | 88 | 1.0 | 3.0 | 0.00 | 0.09 | 0.09 | 92 | 1008.3 |
| 20260903223922 | 80 | 91 | 1.0 | 6.0 | 0.00 | 0.09 | 0.09 | 92 | 1008.4 |
| 20260903223420 | 80 | 84 | 2.0 | 6.0 | 0.00 | 0.09 | 0.09 | 92 | 1008.3 |
| 20260903223152 | 80 | 70 | 2.0 | 6.0 | 0.00 | 0.09 | 0.09 | 92 | 1008.3 |
| 20260903222421 | 80 | 121 | 2.0 | 6.0 | 0.00 | 0.09 | 0.09 | 91 | 1008.3 |
| 20260903221921 | 80 | 87 | 1.0 | 4.0 | 0.00 | 0.09 | 0.09 | 91 | 1008.3 |
| 20260903221652 | 80 | 104 | 1.0 | 3.0 | 0.00 | 0.09 | 0.09 | 91 | 1008.4 |
| 20260903220922 | 80 | 103 | 1.0 | 3.0 | 0.00 | 0.09 | 0.09 | 91 | 1008.5 |
| 20260903220418 | 80 | 89 | 0.0 | 2.0 | 0.00 | 0.09 | 0.09 | 91 | 1008.6 |
| 20260903215914 | 80 | 4 | 0.0 | 3.0 | 0.00 | 0.09 | 0.09 | 91 | 1008.6 |
| 20260903215414 | 80 | 57 | 0.0 | 3.0 | 0.00 | 0.09 | 0.09 | 92 | 1008.7 |
| 20260903214921 | 80 | 68 | 1.0 | 2.0 | 0.00 | 0.09 | 0.09 | 92 | 1008.8 |
| 20260903214915 | 80 | 67 | 1.0 | 2.0 | 0.00 | 0.09 | 0.09 | 92 | 1008.7 |
| 20260903213909 | 80 | 17 | 0.0 | 2.0 | 0.00 | 0.09 | 0.09 | 92 | 1008.9 |
| 20260903213640 | 80 | 75 | 0.0 | 2.0 | 0.00 | 0.09 | 0.09 | 92 | 1008.9 |
| 20260903212910 | 80 | 71 | 1.0 | 3.0 | 0.01 | 0.09 | 0.09 | 92 | 1009.3 |
| 20260903212408 | 80 | 86 | 1.0 | 3.0 | 0.01 | 0.09 | 0.09 | 92 | 1009.6 |
| 20260903211908 | 80 | 17 | 1.0 | 5.0 | 0.01 | 0.09 | 0.09 | 93 | 1009.6 |
| 20260903211633 | 80 | 136 | 1.0 | 5.0 | 0.02 | 0.09 | 0.09 | 93 | 1009.5 |
| 20260903210903 | 80 | 77 | 1.0 | 3.0 | 0.02 | 0.09 | 0.09 | 93 | 1009.4 |
| 20260903210403 | 80 | 98 | 2.0 | 3.0 | 0.02 | 0.09 | 0.09 | 93 | 1009.5 |
| 20260903210134 | 80 | 91 | 1.0 | 3.0 | 0.02 | 0.09 | 0.09 | 93 | 1009.6 |
| 20260903205402 | 79 | 84 | 0.0 | 2.0 | 0.02 | 0.09 | 0.09 | 93 | 1009.3 |
| 20260903205135 | 79 | 296 | 0.0 | 1.0 | 0.02 | 0.09 | 0.09 | 93 | 1009.1 |
| 20260903204358 | 79 | 11 | 0.0 | 3.0 | 0.02 | 0.09 | 0.09 | 92 | 1009.0 |
| 20260903203900 | 79 | 276 | 0.0 | 3.0 | 0.02 | 0.09 | 0.09 | 92 | 1009.1 |
| 20260903203359 | 80 | 242 | 1.0 | 3.0 | 0.02 | 0.09 | 0.09 | 91 | 1009.2 |
| 20260903202900 | 80 | 268 | 1.0 | 3.0 | 0.01 | 0.08 | 0.09 | 90 | 1009.3 |
| 20260903202630 | 80 | 310 | 1.0 | 3.0 | 0.01 | 0.08 | 0.08 | 91 | 1009.3 |
| 20260903201900 | 80 | 273 | 1.0 | 5.0 | 0.01 | 0.08 | 0.08 | 90 | 1009.3 |
| 20260903201354 | 80 | 354 | 1.0 | 5.0 | 0.00 | 0.07 | 0.07 | 91 | 1009.4 |
| 20260903200855 | 80 | 319 | 1.0 | 4.0 | 0.00 | 0.07 | 0.07 | 92 | 1009.5 |
| 20260903200356 | 80 | 263 | 1.0 | 3.0 | 0.00 | 0.07 | 0.07 | 92 | 1009.6 |
| 20260903195854 | 80 | 304 | 1.0 | 2.0 | 0.00 | 0.07 | 0.07 | 93 | 1009.5 |
| 20260903195354 | 80 | 251 | 1.0 | 2.0 | 0.01 | 0.07 | 0.07 | 93 | 1009.5 |
| 20260903194856 | 80 | 245 | 1.0 | 2.0 | 0.01 | 0.07 | 0.07 | 93 | 1009.6 |
| 20260903194351 | 80 | 240 | 1.0 | 4.0 | 0.05 | 0.07 | 0.07 | 93 | 1009.6 |
| 20260903193851 | 80 | 248 | 1.0 | 4.0 | 0.06 | 0.07 | 0.07 | 93 | 1009.7 |
| 20260903193350 | 80 | 268 | 0.0 | 2.0 | 0.06 | 0.07 | 0.07 | 94 | 1009.7 |
| 20260903192850 | 80 | 309 | 0.0 | 1.0 | 0.07 | 0.07 | 0.07 | 93 | 1009.7 |
| 20260903192350 | 80 | 65 | 0.0 | 1.0 | 0.07 | 0.07 | 0.07 | 94 | 1009.7 |
| 20260903191852 | 79 | 65 | 0.0 | 2.0 | 0.07 | 0.07 | 0.07 | 94 | 1009.6 |
| 20260903191347 | 79 | 12 | 0.0 | 2.0 | 0.07 | 0.07 | 0.07 | 94 | 1009.6 |
| 20260903190847 | 79 | 98 | 0.0 | 1.0 | 0.07 | 0.07 | 0.07 | 93 | 1009.7 |
| 20260903190346 | 79 | 103 | 0.0 | 1.0 | 0.07 | 0.07 | 0.07 | 93 | 1009.7 |
| 20260903185848 | 79 | 70 | 0.0 | 1.0 | 0.07 | 0.07 | 0.07 | 93 | 1009.4 |
| 20260903185350 | 79 | 70 | 1.0 | 3.0 | 0.06 | 0.06 | 0.06 | 92 | 1009.3 |
| 20260903184848 | 79 | 70 | 1.0 | 3.0 | 0.05 | 0.05 | 0.06 | 91 | 1009.6 |
| 20260903184343 | 79 | 117 | 0.0 | 3.0 | 0.02 | 0.02 | 0.03 | 89 | 1009.7 |
| 20260903183843 | 79 | 113 | 1.0 | 4.0 | 0.01 | 0.01 | 0.02 | 89 | 1009.7 |
| 20260903183343 | 80 | 96 | 2.0 | 6.0 | 0.01 | 0.01 | 0.01 | 86 | 1009.7 |
| 20260903182842 | 80 | 84 | 3.0 | 11.0 | 0.00 | 0.00 | 0.00 | 84 | 1009.8 |
| 20260903182343 | 81 | 108 | 4.0 | 11.0 | 0.00 | 0.00 | 0.00 | 81 | 1009.8 |
| 20260903181843 | 82 | 89 | 5.0 | 14.0 | 0.00 | 0.00 | 0.00 | 82 | 1010.0 |
| 20260903181620 | 85 | 40 | 4.0 | 13.0 | 0.00 | 0.00 | 0.00 | 77 | 1010.0 |
| 20260903181343 | 83 | 98 | 6.0 | 14.0 | 0.00 | 0.00 | 0.00 | 79 | 1009.9 |
| 20260903180343 | 86 | 78 | 2.0 | 9.0 | 0.00 | 0.00 | 0.00 | 76 | 1010.0 |
| 20260903175843 | 86 | 72 | 1.0 | 4.0 | 0.00 | 0.00 | 0.00 | 75 | 1010.1 |
| 20260903175342 | 86 | 59 | 1.0 | 3.0 | 0.00 | 0.00 | 0.00 | 73 | 1009.9 |
| 20260903174839 | 87 | 312 | 2.0 | 9.0 | 0.00 | 0.00 | 0.00 | 71 | 1009.8 |
| 20260903174336 | 88 | 296 | 2.0 | 9.0 | 0.00 | 0.00 | 0.00 | 69 | 1010.0 |
| 20260903173837 | 88 | 326 | 1.0 | 8.0 | 0.00 | 0.00 | 0.00 | 69 | 1009.8 |
| 20260903173337 | 88 | 270 | 3.0 | 8.0 | 0.00 | 0.00 | 0.00 | 68 | 1009.5 |
| 20260903172837 | 88 | 256 | 4.0 | 9.0 | 0.00 | 0.00 | 0.00 | 66 | 1009.7 |
| 20260903172331 | 90 | 247 | 2.0 | 9.0 | 0.00 | 0.00 | 0.00 | 67 | 1009.8 |
| 20260903171828 | 91 | 258 | 1.0 | 3.0 | 0.00 | 0.00 | 0.00 | 72 | 1009.8 |
| 20260903171327 | 91 | 301 | 1.0 | 3.0 | 0.00 | 0.00 | 0.00 | 73 | 1009.8 |
| 20260903170825 | 91 | 35 | 2.0 | 6.0 | 0.00 | 0.00 | 0.00 | 73 | 1009.9 |
| 20260903170325 | 91 | 288 | 3.0 | 6.0 | 0.00 | 0.00 | 0.00 | 72 | 1010.0 |
| 20260903165819 | 92 | 325 | 3.0 | 7.0 | 0.00 | 0.00 | 0.00 | 71 | 1010.0 |
| 20260903165321 | 92 | 269 | 3.0 | 7.0 | 0.00 | 0.00 | 0.00 | 70 | 1010.1 |
| 20260903164818 | 93 | 309 | 2.0 | 5.0 | 0.00 | 0.00 | 0.00 | 69 | 1010.1 |
| 20260903164320 | 94 | 252 | 2.0 | 6.0 | 0.00 | 0.00 | 0.00 | 62 | 1010.1 |
| 20260903164049 | 94 | 229 | 2.0 | 6.0 | 0.00 | 0.00 | 0.00 | 65 | 1010.0 |
| 20260903163321 | 94 | 232 | 1.0 | 5.0 | 0.00 | 0.00 | 0.00 | 64 | 1010.0 |
| 20260903162814 | 94 | 87 | 1.0 | 4.0 | 0.00 | 0.00 | 0.00 | 65 | 1009.9 |
| 20260903162312 | 93 | 264 | 2.0 | 5.0 | 0.00 | 0.00 | 0.00 | 68 | 1010.0 |
| 20260903162045 | 91 | 194 | 2.0 | 6.0 | 0.00 | 0.00 | 0.00 | 70 | 1010.0 |
| 20260903161310 | 91 | 282 | 3.0 | 6.0 | 0.00 | 0.00 | 0.00 | 71 | 1010.0 |
| 20260903160810 | 92 | 281 | 3.0 | 6.0 | 0.00 | 0.00 | 0.00 | 72 | 1010.1 |
| 20260903160542 | 92 | 290 | 2.0 | 6.0 | 0.00 | 0.00 | 0.00 | 70 | 1010.1 |
| 20260903155811 | 92 | 263 | 2.0 | 7.0 | 0.00 | 0.00 | 0.00 | 71 | 1010.1 |
| 20260903155309 | 91 | 190 | 2.0 | 7.0 | 0.00 | 0.00 | 0.00 | 74 | 1010.1 |
| 20260903155037 | 90 | 319 | 2.0 | 4.0 | 0.00 | 0.00 | 0.00 | 75 | 1010.1 |
| 20260903154540 | 90 | 214 | 2.0 | 6.0 | 0.00 | 0.00 | 0.00 | 75 | 1010.1 |
| 20260903153804 | 90 | 252 | 2.0 | 6.0 | 0.00 | 0.00 | 0.00 | 75 | 1010.2 |
| 20260903153305 | 91 | 165 | 2.0 | 6.0 | 0.00 | 0.00 | 0.00 | 76 | 1010.2 |
| 20260903153034 | 91 | 283 | 1.0 | 6.0 | 0.00 | 0.00 | 0.00 | 75 | 1010.2 |
| 20260903152306 | 91 | 98 | 1.0 | 5.0 | 0.00 | 0.00 | 0.00 | 74 | 1010.2 |
| 20260903151754 | 91 | 152 | 2.0 | 5.0 | 0.00 | 0.00 | 0.00 | 75 | 1010.2 |
| 20260903151254 | 91 | 255 | 1.0 | 5.0 | 0.00 | 0.00 | 0.00 | 77 | 1010.2 |
| 20260903150756 | 90 | 70 | 1.0 | 7.0 | 0.00 | 0.00 | 0.00 | 77 | 1010.2 |
| 20260903150256 | 90 | 96 | 1.0 | 7.0 | 0.00 | 0.00 | 0.00 | 77 | 1010.2 |
| 20260903145753 | 89 | 81 | 1.0 | 5.0 | 0.00 | 0.00 | 0.00 | 78 | 1010.2 |
| 20260903145253 | 89 | 95 | 1.0 | 5.0 | 0.00 | 0.00 | 0.00 | 79 | 1010.3 |
| 20260903145022 | 88 | 103 | 1.0 | 7.0 | 0.00 | 0.00 | 0.00 | 81 | 1010.3 |
| 20260903144250 | 87 | 106 | 1.0 | 7.0 | 0.00 | 0.00 | 0.00 | 82 | 1010.3 |
| 20260903143751 | 86 | 23 | 1.0 | 5.0 | 0.00 | 0.00 | 0.00 | 83 | 1010.4 |
| 20260903143520 | 86 | 203 | 0.0 | 5.0 | 0.00 | 0.00 | 0.00 | 83 | 1010.4 |
| 20260903142748 | 86 | 219 | 0.0 | 4.0 | 0.00 | 0.00 | 0.00 | 84 | 1010.4 |
| 20260903142247 | 85 | 224 | 1.0 | 4.0 | 0.00 | 0.00 | 0.00 | 84 | 1010.4 |
| 20260903141744 | 85 | 42 | 0.0 | 3.0 | 0.00 | 0.00 | 0.00 | 85 | 1010.4 |
| 20260903141517 | 85 | 174 | 0.0 | 4.0 | 0.00 | 0.00 | 0.00 | 85 | 1010.4 |
| 20260903140744 | 84 | 129 | 0.0 | 4.0 | 0.00 | 0.00 | 0.00 | 85 | 1010.4 |
| 20260903140244 | 84 | 243 | 0.0 | 2.0 | 0.00 | 0.00 | 0.00 | 86 | 1010.5 |
| 20260903135746 | 84 | 184 | 0.0 | 3.0 | 0.00 | 0.00 | 0.00 | 86 | 1010.4 |
| 20260903135244 | 84 | 84 | 0.0 | 3.0 | 0.00 | 0.00 | 0.00 | 87 | 1010.4 |
| 20260903135015 | 83 | 80 | 0.0 | 3.0 | 0.00 | 0.00 | 0.00 | 87 | 1010.4 |
| 20260903134241 | 83 | 266 | 0.0 | 3.0 | 0.00 | 0.00 | 0.00 | 87 | 1010.4 |
| 20260903134011 | 83 | 199 | 1.0 | 3.0 | 0.00 | 0.00 | 0.00 | 88 | 1010.4 |
| 20260903133508 | 83 | 123 | 0.0 | 4.0 | 0.00 | 0.00 | 0.00 | 88 | 1010.4 |
| 20260903132738 | 82 | 101 | 0.0 | 4.0 | 0.00 | 0.00 | 0.00 | 88 | 1010.4 |
| 20260903132510 | 82 | 161 | 0.0 | 2.0 | 0.00 | 0.00 | 0.00 | 89 | 1010.4 |
| 20260903131738 | 82 | 75 | 0.0 | 2.0 | 0.00 | 0.00 | 0.00 | 89 | 1010.3 |
| 20260903131501 | 82 | 72 | 0.0 | 1.0 | 0.00 | 0.00 | 0.00 | 89 | 1010.3 |
| 20260903130729 | 82 | 113 | 0.0 | 1.0 | 0.00 | 0.00 | 0.00 | 89 | 1010.1 |
| 20260903130227 | 82 | 63 | 0.0 | 1.0 | 0.00 | 0.00 | 0.00 | 89 | 1010.1 |
| 20260903125726 | 82 | 63 | 0.0 | 1.0 | 0.00 | 0.00 | 0.00 | 89 | 1010.0 |
| 20260903125225 | 81 | 12 | 0.0 | 1.0 | 0.00 | 0.00 | 0.00 | 90 | 1009.9 |
| 20260903124720 | 81 | 319 | 0.0 | 5.0 | 0.00 | 0.00 | 0.00 | 90 | 1009.9 |
| 20260903124222 | 81 | 311 | 0.0 | 5.0 | 0.00 | 0.00 | 0.00 | 90 | 1009.8 |
| 20260903123721 | 81 | 119 | 0.0 | 1.0 | 0.00 | 0.00 | 0.00 | 90 | 1009.8 |
| 20260903123220 | 81 | 119 | 0.0 | 1.0 | 0.00 | 0.00 | 0.00 | 91 | 1009.7 |
| 20260903122951 | 81 | 150 | 0.0 | 2.0 | 0.00 | 0.00 | 0.00 | 91 | 1009.7 |
| 20260903122222 | 81 | 150 | 0.0 | 2.0 | 0.00 | 0.00 | 0.00 | 91 | 1009.7 |
| 20260903121721 | 81 | 136 | 0.0 | 3.0 | 0.00 | 0.00 | 0.00 | 91 | 1009.7 |
| 20260903121217 | 81 | 143 | 0.0 | 3.0 | 0.00 | 0.00 | 0.00 | 91 | 1009.7 |
| 20260903120716 | 81 | 121 | 0.0 | 0.0 | 0.00 | 0.00 | 0.00 | 91 | 1009.7 |
| 20260903120214 | 81 | 121 | 0.0 | 0.0 | 0.00 | 0.00 | 0.00 | 91 | 1009.7 |
| 20260903115715 | 81 | 121 | 0.0 | 1.0 | 0.00 | 0.00 | 0.00 | 92 | 1009.7 |
| 20260903115215 | 81 | 114 | 0.0 | 1.0 | 0.00 | 0.00 | 0.00 | 92 | 1009.7 |
| 20260903114714 | 81 | 115 | 0.0 | 1.0 | 0.00 | 0.00 | 0.00 | 92 | 1009.7 |
| 20260903114217 | 81 | 114 | 0.0 | 1.0 | 0.00 | 0.00 | 0.00 | 92 | 1009.7 |
| 20260903114209 | 81 | 115 | 0.0 | 1.0 | 0.00 | 0.00 | 0.00 | 92 | 1009.6 |
| 20260903113205 | 81 | 114 | 0.0 | 1.0 | 0.00 | 0.00 | 0.00 | 92 | 1009.7 |
| 20260903112704 | 81 | 114 | 0.0 | 1.0 | 0.00 | 0.00 | 0.00 | 92 | 1009.6 |
| 20260903112203 | 81 | 115 | 0.0 | 1.0 | 0.00 | 0.00 | 0.00 | 92 | 1009.7 |
| 20260903111657 | 81 | 221 | 0.0 | 1.0 | 0.00 | 0.00 | 0.00 | 92 | 1009.6 |
| 20260903111155 | 81 | 221 | 0.0 | 0.0 | 0.00 | 0.00 | 0.00 | 92 | 1009.6 |
| 20260903110654 | 81 | 221 | 0.0 | 1.0 | 0.00 | 0.00 | 0.00 | 92 | 1009.6 |
| 20260903110152 | 81 | 221 | 0.0 | 1.0 | 0.00 | 0.00 | 0.00 | 92 | 1009.6 |
| 20260903105921 | 81 | 221 | 0.0 | 0.0 | 0.00 | 0.00 | 0.00 | 92 | 1009.6 |
| 20260903105145 | 81 | 221 | 0.0 | 0.0 | 0.00 | 0.00 | 0.00 | 92 | 1009.6 |
| 20260903104643 | 81 | 221 | 0.0 | 0.0 | 0.00 | 0.00 | 0.00 | 92 | 1009.5 |
| 20260903104412 | 81 | 221 | 0.0 | 0.0 | 0.00 | 0.00 | 0.00 | 91 | 1009.5 |
| 20260903103909 | 81 | 221 | 0.0 | 0.0 | 0.00 | 0.00 | 0.00 | 91 | 1009.6 |
| 20260903103755 | 81 | 221 | 0.0 | 0.0 | 0.00 | 0.00 | 0.00 | 91 | 1009.5 |
| 20260903102909 | 81 | 221 | 0.0 | 0.0 | 0.00 | 0.00 | 0.00 | 91 | 1009.5 |
| 20260903102137 | 81 | 226 | 0.0 | 1.0 | 0.00 | 0.00 | 0.00 | 91 | 1009.5 |
| 20260903101637 | 81 | 226 | 0.0 | 1.0 | 0.00 | 0.00 | 0.00 | 91 | 1009.5 |
| 20260903101135 | 81 | 226 | 0.0 | 1.0 | 0.00 | 0.00 | 0.00 | 91 | 1009.4 |
| 20260903100633 | 81 | 226 | 0.0 | 1.0 | 0.00 | 0.00 | 0.00 | 91 | 1009.3 |
| 20260903100132 | 81 | 226 | 0.0 | 0.0 | 0.00 | 0.00 | 0.00 | 90 | 1009.3 |
| 20260903095631 | 81 | 226 | 0.0 | 1.0 | 0.00 | 0.00 | 0.00 | 90 | 1009.3 |
| 20260903095129 | 81 | 226 | 0.0 | 1.0 | 0.00 | 0.00 | 0.00 | 90 | 1009.3 |
| 20260903094626 | 81 | 226 | 0.0 | 1.0 | 0.00 | 0.00 | 0.00 | 90 | 1009.3 |
| 20260903094359 | 82 | 226 | 0.0 | 2.0 | 0.00 | 0.00 | 0.00 | 90 | 1009.3 |
| 20260903093858 | 81 | 226 | 0.0 | 2.0 | 0.00 | 0.00 | 0.00 | 90 | 1009.3 |
| 20260903093127 | 82 | 117 | 0.0 | 1.0 | 0.00 | 0.00 | 0.00 | 90 | 1009.4 |
| 20260903092625 | 82 | 117 | 0.0 | 1.0 | 0.00 | 0.00 | 0.00 | 90 | 1009.4 |
| 20260903092123 | 82 | 117 | 0.0 | 1.0 | 0.00 | 0.00 | 0.00 | 90 | 1009.3 |
| 20260903091623 | 82 | 176 | 0.0 | 0.0 | 0.00 | 0.00 | 0.00 | 89 | 1009.3 |
| 20260903091123 | 82 | 177 | 0.0 | 0.0 | 0.00 | 0.00 | 0.00 | 89 | 1009.3 |
| 20260903090621 | 82 | 168 | 0.0 | 0.0 | 0.00 | 0.00 | 0.00 | 89 | 1009.3 |
| 20260903090121 | 82 | 194 | 0.0 | 0.0 | 0.00 | 0.00 | 0.00 | 89 | 1009.2 |
| 20260903085615 | 82 | 194 | 0.0 | 0.0 | 0.00 | 0.00 | 0.00 | 88 | 1009.2 |
| 20260903085113 | 82 | 196 | 0.0 | 1.0 | 0.00 | 0.00 | 0.00 | 88 | 1009.2 |
| 20260903084611 | 82 | 196 | 0.0 | 2.0 | 0.00 | 0.00 | 0.00 | 88 | 1009.2 |
| 20260903084109 | 83 | 219 | 1.0 | 3.0 | 0.00 | 0.00 | 0.00 | 88 | 1009.3 |
| 20260903083608 | 83 | 78 | 1.0 | 5.0 | 0.00 | 0.00 | 0.00 | 88 | 1009.3 |
| 20260903083105 | 83 | 124 | 0.0 | 5.0 | 0.00 | 0.00 | 0.00 | 88 | 1009.1 |
| 20260903082604 | 83 | 83 | 0.0 | 3.0 | 0.00 | 0.00 | 0.00 | 88 | 1009.1 |
| 20260903082104 | 83 | 111 | 0.0 | 3.0 | 0.00 | 0.00 | 0.00 | 88 | 1009.3 |
| 20260903081611 | 83 | 160 | 0.0 | 3.0 | 0.00 | 0.00 | 0.00 | 88 | 1009.2 |
| 20260903081605 | 83 | 138 | 0.0 | 1.0 | 0.00 | 0.00 | 0.00 | 88 | 1009.2 |
| 20260903080603 | 83 | 107 | 0.0 | 3.0 | 0.00 | 0.00 | 0.00 | 88 | 1009.2 |
| 20260903080057 | 83 | 146 | 0.0 | 2.0 | 0.00 | 0.00 | 0.00 | 88 | 1009.2 |
| 20260903075825 | 83 | 96 | 0.0 | 3.0 | 0.00 | 0.00 | 0.00 | 88 | 1009.1 |
| 20260903075053 | 83 | 131 | 0.0 | 3.0 | 0.00 | 0.00 | 0.00 | 88 | 1009.0 |
| 20260903074552 | 83 | 146 | 0.0 | 3.0 | 0.00 | 0.00 | 0.00 | 88 | 1009.1 |
| 20260903074325 | 83 | 244 | 0.0 | 3.0 | 0.00 | 0.00 | 0.00 | 88 | 1009.1 |
| 20260903073553 | 83 | 221 | 0.0 | 4.0 | 0.00 | 0.00 | 0.00 | 88 | 1009.1 |
| 20260903073056 | 83 | 137 | 0.0 | 2.0 | 0.00 | 0.00 | 0.00 | 88 | 1009.2 |
| 20260903073051 | 83 | 80 | 0.0 | 4.0 | 0.00 | 0.00 | 0.00 | 88 | 1009.1 |
| 20260903072049 | 83 | 94 | 0.0 | 2.0 | 0.00 | 0.00 | 0.00 | 88 | 1009.3 |
| 20260903071549 | 83 | 133 | 0.0 | 3.0 | 0.00 | 0.00 | 0.00 | 88 | 1009.4 |
| 20260903071047 | 83 | 125 | 0.0 | 3.0 | 0.00 | 0.00 | 0.00 | 88 | 1009.5 |
| 20260903070547 | 83 | 113 | 0.0 | 3.0 | 0.00 | 0.00 | 0.00 | 87 | 1009.5 |
| 20260903070045 | 83 | 200 | 0.0 | 3.0 | 0.00 | 0.00 | 0.00 | 87 | 1009.6 |
| 20260903065544 | 83 | 131 | 0.0 | 5.0 | 0.00 | 0.00 | 0.00 | 87 | 1009.7 |
| 20260903065045 | 83 | 183 | 1.0 | 5.0 | 0.00 | 0.00 | 0.00 | 87 | 1009.8 |
| 20260903064813 | 83 | 172 | 1.0 | 6.0 | 0.00 | 0.00 | 0.00 | 87 | 1009.8 |
| 20260903064043 | 83 | 145 | 1.0 | 6.0 | 0.00 | 0.00 | 0.00 | 88 | 1009.8 |
| 20260903063540 | 83 | 133 | 0.0 | 4.0 | 0.00 | 0.00 | 0.00 | 88 | 1009.8 |
| 20260903063037 | 83 | 77 | 0.0 | 5.0 | 0.00 | 0.00 | 0.00 | 88 | 1009.8 |
| 20260903062535 | 83 | 155 | 1.0 | 5.0 | 0.00 | 0.00 | 0.00 | 88 | 1009.8 |
| 20260903062032 | 83 | 114 | 1.0 | 2.0 | 0.00 | 0.00 | 0.00 | 88 | 1009.8 |
| 20260903061801 | 83 | 105 | 1.0 | 3.0 | 0.00 | 0.00 | 0.00 | 88 | 1009.9 |
| 20260903061028 | 83 | 59 | 1.0 | 3.0 | 0.00 | 0.00 | 0.00 | 88 | 1010.0 |
| 20260903060529 | 83 | 113 | 0.0 | 2.0 | 0.00 | 0.00 | 0.00 | 88 | 1010.0 |
| 20260903060029 | 83 | 137 | 0.0 | 1.0 | 0.00 | 0.00 | 0.00 | 88 | 1010.1 |
| 20260903055526 | 83 | 172 | 0.0 | 0.0 | 0.00 | 0.00 | 0.00 | 88 | 1010.2 |
| 20260903055026 | 82 | 172 | 0.0 | 2.0 | 0.00 | 0.00 | 0.00 | 88 | 1010.2 |
| 20260903054527 | 83 | 172 | 0.0 | 2.0 | 0.00 | 0.00 | 0.00 | 88 | 1010.2 |
| 20260903054257 | 83 | 113 | 0.0 | 2.0 | 0.00 | 0.00 | 0.00 | 88 | 1010.2 |
| 20260903053757 | 83 | 120 | 0.0 | 2.0 | 0.00 | 0.00 | 0.00 | 88 | 1010.2 |
| 20260903053022 | 83 | 115 | 0.0 | 2.0 | 0.00 | 0.00 | 0.00 | 88 | 1010.2 |
| 20260903052522 | 83 | 76 | 0.0 | 2.0 | 0.00 | 0.00 | 0.00 | 88 | 1010.3 |
| 20260903052021 | 83 | 105 | 0.0 | 2.0 | 0.00 | 0.00 | 0.00 | 88 | 1010.3 |
| 20260903051522 | 83 | 103 | 1.0 | 3.0 | 0.00 | 0.00 | 0.00 | 88 | 1010.3 |
| 20260903051023 | 83 | 91 | 1.0 | 3.0 | 0.00 | 0.00 | 0.00 | 88 | 1010.4 |
| 20260903050754 | 83 | 87 | 1.0 | 3.0 | 0.00 | 0.00 | 0.00 | 88 | 1010.5 |
| 20260903050023 | 83 | 96 | 0.0 | 3.0 | 0.00 | 0.00 | 0.00 | 88 | 1010.4 |